AirNav   Everest Fuels
 
 1669 users online  

K23 Cooperstown-Westville Airport
Cooperstown, New York, USA

GOING TO COOPERSTOWN?


FAA INFORMATION EFFECTIVE 07 NOVEMBER 2019

Location

FAA Identifier: K23
Lat/Long: 42-37-45.2730N 074-53-27.5560W
42-37.754550N 074-53.459267W
42.6292425,-74.8909878
(estimated)
Elevation: 1260 ft. / 384 m (estimated)
Variation: 13W (1985)
From city: 4 miles SE of COOPERSTOWN, NY
Time zone: UTC -5 (UTC -4 during Daylight Saving Time)
Zip code: 13326

Airport Operations

Airport use: Open to the public
Activation date: 05/1956
Control tower: no
ARTCC: BOSTON CENTER
FSS: BUFFALO FLIGHT SERVICE STATION
NOTAMs facility: BUF (NOTAM-D service available)
Attendance: UNATNDD
CALL MGR FOR SERVICES.
Wind indicator: yes
Segmented circle: yes
Lights: ACTVT MIRL RY 02/20 - CTAF.

Airport Communications

CTAF/UNICOM: 122.8
WX AWOS-3 at N66 (10 nm SW): 119.575 (607-643-0253)

Nearby radio navigation aids

VOR radial/distance  VOR name  Freq  Var
RKAr069/18.2ROCKDALE VOR/DME112.6011W
UCAr165/26.7UTICA VORTAC111.2012W
DNYr017/27.2DELANCEY VOR/DME112.1011W
HNKr040/38.9HANCOCK VOR/DME116.8011W

 
NDB name  Hdg/Dist  Freq  Var  ID
JOHNSTOWN242/33.252314WJJH .--- .--- ....

Airport Services

Fuel available: 100LL
SELF SERVICE FUELING AVBL.
Parking: hangars and tiedowns
Airframe service: MAJOR
Powerplant service: MAJOR
Bottled oxygen: NONE
Bulk oxygen: NONE

Runway Information

Runway 2/20

Dimensions: 2337 x 125 ft. / 712 x 38 m
RY EDGE DENOTED BY WHITE TIRES AROUND EDGE LIGHTS.
Surface: turf, in fair condition
Runway edge lights: non-standard
NSTD MIRL; SPACING; 2 THLD LGTS EACH SIDE.
RUNWAY 2  RUNWAY 20
Traffic pattern: rightleft
Visual slope indicator: non-standard VASI systemnon-standard VASI system
Obstructions: 11 ft. trees, 4 ft. from runway, 60 ft. right of centerline
RWY 02; +60 FT TREE, 359 FT FROM THRESHOLD, 145 FT LEFT
7 ft. crops, 11 ft. from runway, 123 ft. left of centerline, 1:1 slope to clear
RWY 20; +37 FT POLE, 394 FT FROM THRESHOLD, 163 FT RIGHT

Airport Ownership and Management from official FAA records

Ownership: Privately-owned
Owner: RICK WILLIAMS
866 ST. RT. 166, PO BOX 1285
COOPERSTOWN, NY 13326-8661
Phone (607) 437-8308
Manager: GEORGE CHANDLER
BODEE AVIATION, LLC, PO BOX 52
COOPERSTOWN, NY 13326
Phone 607-287-7032

Airport Operational Statistics

Aircraft based on the field: 30
Single engine airplanes: 23
Multi engine airplanes: 1
Ultralights: 6
    
Aircraft operations: avg 46/week *
50% transient general aviation
50% local general aviation
* for 12-month period ending 23 August 2017

Additional Remarks

FOR CD CTC BOSTON ARTCC AT 603-879-6859.

Instrument Procedures

There are no published instrument procedures at K23.

Some nearby airports with instrument procedures:

N66 - Oneonta Municipal Airport (10 nm SW)
KOIC - LT Warren Eaton Airport (28 nm W)
N23 - Sidney Municipal Airport (30 nm SW)
KVGC - Hamilton Municipal Airport (32 nm NW)
NY0 - Fulton County Airport (33 nm NE)
 
Loc | Ops | Rwys | IFR | FBO | Links
Com | Nav | Svcs | Stats | Notes
Area around K23 (Cooperstown-Westville Airport)
 
Road maps at: MapQuest Bing Google
 
Aerial photo
WARNING: Photo may not be current or correct
Aerial photo of K23 (Cooperstown-Westville Airport)
Photo by Michael Kilcher
As seen circa 2007
looking south.

Do you have a better or more recent aerial photo of Cooperstown-Westville Airport that you would like to share? If so, please send us your photo.

 
Sectional chart

 
Airport distance calculator
Flying to Cooperstown-Westville Airport? Find the distance to fly.

From to K23

Sunrise and sunset
Times for 21-Nov-2019
 Local
(UTC-5)
 Zulu
(UTC)
Morning civil twilight06:2911:29
Sunrise06:5911:59
Sunset16:3221:32
Evening civil twilight17:0222:02

Current date and time
Zulu (UTC)  21-Nov-2019 16:04:32
Local (UTC-5)  21-Nov-2019 11:04:32
 
METAR
KNY0 
33nm NE 
211555Z AUTO 31010G14KT 10SM CLR 02/M01 A3018 RMK AO2
KRME 
42nm NW 
211553Z 10006KT 10SM OVC023 03/01 A3021 RMK AO2 SLP232 T00280011
KSCH 
45nm E 
211545Z 29006G14KT 10SM CLR 04/M01 A3020
KALB 
49nm E 
211551Z 36005KT 10SM FEW021 FEW300 06/01 A3021 RMK AO2 SLP231 T00560006
TAF
KRME 
42nm NW 
211134Z 2112/2212 13005KT P6SM SCT025 BKN080 TEMPO 2112/2114 BKN025 FM220100 12008KT P6SM OVC035 WS020/21030KT FM220400 13007KT P6SM -SHRA OVC028 WS020/20035KT FM221000 23011KT 6SM -SHRA BR OVC018 WS010/25020KT
KALB 
49nm E 
211122Z 2112/2212 31004KT P6SM FEW250 FM212000 16004KT P6SM SCT250 FM220400 17008KT P6SM VCSH OVC060
NOTAMs
Click for the latest NOTAMs
NOTAMs are issued by the DoD/FAA and will open in a separate window not controlled by AirNav.

 

 
 

FBO, Fuel Providers, and Aircraft Ground Support

  
 Business Name 
 
 Contact 
 
 Services / Description 
 
Fuel Prices
 
Comments
  
BoDee Aviation 607-287-7032
[email]
Airport management, Aviation fuel, Aircraft parking (ramp or tiedown), Hangar leasing / sales, Flight training, Aerial tours / aerial sightseeing, Aerial photography, ...

More info about BoDee Aviation
independent
100LL
SS $4.99 
 Updated 02-Oct-2019
 
   write
SS=Self service
Update Fuel Prices
 

Would you like to see your business listed on this page?

 If your business provides an interesting product or service to pilots, flight crews, aircraft, or users of the Cooperstown-Westville Airport, you should consider listing it here.  To start the listing process, click on the button below
 
Add a business
 

Other Pages about Cooperstown-Westville Airport

www.cooperstownwestvilleairport.com
 
Update a link
 
Copyright © AirNav, LLC. All rights reserved. Privacy Policy  Contact